{"data":{"norad_id":61706,"epoch":"2026-09-20T11:43:32.918016Z","epoch_age_seconds":189449,"freshness":"STALE","line1":"1 61706U 24195V   26263.48857544 -.00000830  00000+0 -13446-4 0  9999","line2":"2 61706  53.1590 325.7425 0001227  84.8639 275.2503 15.34388321107070","mean_motion":15.34388321,"eccentricity":0.0001227,"inclination_deg":53.159,"raan_deg":325.7425,"arg_perigee_deg":84.8639,"mean_anomaly_deg":275.2503,"bstar":-1.3446e-5,"rev_number":10707,"period_min":93.848472403747,"perigee_km":461.8985775198,"apogee_km":463.57732823324,"semimajor_km":6840.8749528765,"source":"CELESTRAK","updated_at":"2026-09-22T09:00:49.409503Z"}}